Temperature
4 6 5 5 4 5 5 5 5 5 4 4 4 4 4 3 3 3 2 2 2 2 2 3 3 4 4 5 5 5 6 6 6 6 7 7 7 7 8 8 8 8 9 9
6 4 3 3 3 4 4 4 5 4 4 4 4 4 4 3 2 2 1 1 1 1 2 2 3 3 4 4 4 5 5 5 6 6 6 6 6 7 7 7 7 8 8 8
5 3 3 3 3 4 4 4 4 4 3 3 3 4 4 3 2 1 1 1 1 1 1 1 2 2 3 3 4 4 4 5 5 5 5 6 6 6 6 6 7 7 8 8
3 2 2 3 3 3 4 3 3 3 3 4 3 5 5 3 2 2 1 0 0 0 0 1 1 2 2 2 3 3 4 4 5 5 5 5 5 5 6 6 6 7 7 7
3 2 2 2 2 2 2 2 2 3 3 3 3 3 5 2 2 2 1 0 0 -0 0 0 1 1 1 2 2 3 3 4 4 4 4 4 5 5 5 5 6 6 6 7
2 1 1 1 1 1 1 2 3 3 3 3 3 3 4 3 2 2 1 0 -0 -1 -0 -0 0 1 1 1 2 2 3 3 3 4 4 4 4 4 4 5 5 5 6 6
2 2 1 0 1 2 2 3 4 4 4 4 2 2 3 2 0 0 -0 -1 -1 -1 -1 -0 -0 0 0 1 1 1 2 2 3 3 3 3 3 3 4 4 4 4 5 5
3 3 1 0 0 1 1 2 3 4 5 5 2 2 3 0 -1 -2 -2 -2 -2 -1 -1 -1 -1 -1 -0 0 0 1 1 2 2 2 3 3 3 3 3 3 3 4 4 5
3 3 0 -0 -0 0 1 1 0 1 1 2 3 2 1 0 -1 -1 -2 -2 -2 -2 -2 -2 -1 -1 -1 -0 -0 0 1 1 1 2 2 2 3 3 3 3 3 3 4 4
0 1 0 -1 -0 -1 -0 -0 0 1 2 3 3 3 2 0 -0 -1 -1 -2 -2 -3 -2 -2 -2 -2 -1 -1 -0 -0 0 1 1 1 2 2 2 2 2 3 3 3 3 4
-1 -0 0 -0 -1 -1 -1 -1 -1 0 0 2 3 3 1 -0 -1 -1 -2 -2 -3 -3 -3 -3 -2 -2 -2 -1 -1 -1 -0 0 0 1 1 2 2 2 2 2 2 2 3 3
-1 -1 0 -0 -2 -2 -2 -2 -1 0 -0 -1 1 2 -0 -1 -2 -2 -2 -3 -3 -3 -3 -3 -3 -2 -2 -2 -1 -1 -1 -1 -0 0 0 1 1 1 2 2 2 2 2 3
-2 -2 1 1 -1 -3 -3 -3 -3 -3 -2 -1 0 1 -1 -2 -2 -3 -3 -3 -3 -4 -4 -3 -3 -3 -3 -2 -2 -2 -1 -1 -1 -1 -0 0 1 1 1 1 2 2 2 2
-2 -2 -1 1 1 -2 -3 -4 -4 -3 -2 -1 -1 0 -0 -1 -2 -3 -4 -4 -4 -4 -4 -4 -4 -3 -3 -3 -2 -2 -2 -2 -1 -1 -1 -0 -0 0 1 1 1 1 2 2
-2 -2 -3 -2 -3 -3 -3 -3 -4 -4 -3 -2 -1 -2 -1 -1 -2 -3 -4 -4 -4 -4 -4 -4 -4 -4 -4 -3 -3 -3 -2 -2 -2 -2 -1 -1 -1 -0 -0 0 1 1 1 1
-3 -3 -4 -3 -3 -4 -4 -3 -4 -4 -4 -3 -3 -3 -2 -3 -4 -4 -4 -4 -5 -5 -5 -5 -4 -4 -4 -4 -4 -4 -3 -3 -2 -2 -2 -2 -1 -1 -1 -0 0 0 1 1
-4 -4 -3 -2 -4 -4 -2 -3 -4 -4 -4 -4 -3 -2 -3 -4 -4 -4 -4 -5 -5 -5 -5 -5 -5 -5 -5 -5 -5 -4 -4 -4 -3 -3 -3 -2 -2 -2 -1 -1 -1 -1 -0 0
-5 -4 -4 -3 -3 -2 -0 -4 -4 -4 -4 -4 -4 -4 -4 -4 -5 -5 -5 -5 -5 -5 -6 -5 -5 -5 -5 -5 -5 -5 -5 -4 -4 -4 -3 -3 -3 -2 -2 -2 -1 -1 -1 -1
-5 -4 -4 -3 -3 -1 -1 -4 -5 -5 -4 -4 -5 -4 -4 -5 -5 -4 -5 -5 -6 -6 -6 -6 -6 -6 -6 -6 -5 -5 -5 -5 -5 -4 -4 -4 -4 -3 -3 -2 -2 -2 -2 -1
-7 -6 -4 -4 -3 -2 -1 -4 -6 -5 -3 -4 -5 -5 -5 -6 -4 -3 -5 -6 -6 -6 -6 -6 -6 -6 -6 -6 -6 -6 -6 -5 -5 -5 -5 -5 -5 -4 -4 -3 -3 -3 -3 -2
-7 -6 -5 -4 -4 -2 -3 -6 -6 -3 -2 -4 -5 -6 -6 -6 -5 -5 -6 -6 -7 -7 -7 -7 -7 -7 -7 -7 -6 -6 -6 -6 -6 -6 -6 -5 -5 -5 -4 -4 -4 -4 -3 -3
-5 -5 -6 -5 -5 -3 -5 -6 -5 -3 -5 -5 -6 -6 -6 -7 -7 -7 -7 -7 -7 -7 -7 -7 -7 -7 -7 -7 -7 -7 -7 -6 -6 -6 -6 -6 -6 -5 -5 -5 -4 -4 -4 -4
-5 -4 -4 -5 -3 -4 -6 -6 -5 -5 -6 -6 -6 -6 -7 -7 -7 -7 -7 -8 -8 -8 -8 -8 -8 -8 -8 -7 -7 -7 -7 -7 -7 -7 -6 -6 -6 -6 -6 -5 -5 -5 -5 -4
-6 -7 -6 -6 -5 -6 -6 -6 -6 -6 -6 -6 -6 -7 -7 -7 -8 -8 -8 -8 -8 -8 -8 -8 -8 -8 -8 -8 -8 -8 -7 -7 -7 -7 -7 -7 -6 -6 -6 -6 -6 -5 -5 -5
-5 -8 -7 -7 -6 -7 -6 -6 -6 -6 -7 -7 -7 -7 -7 -8 -8 -8 -9 -9 -9 -9 -9 -9 -9 -9 -8 -8 -8 -8 -8 -8 -7 -7 -7 -7 -7 -7 -6 -6 -6 -6 -6 -6
-7 -7 -6 -4 -5 -6 -5 -6 -6 -7 -7 -7 -7 -7 -8 -8 -8 -9 -9 -9 -9 -9 -9 -9 -9 -9 -9 -9 -8 -8 -8 -8 -8 -8 -8 -7 -7 -7 -7 -7 -7 -7 -6 -6
Wind_Speed
4 3 3 3 2 3 3 5 7 7 5 5 7 9 8 5 5 5 5 5 5 6 6 6 5 4 3 3 3 3 2 1 1 1 1 2 2 2 2 2 3 5 5 6
2 4 4 3 1 1 3 5 6 5 4 5 6 10 9 6 5 4 4 4 5 6 7 7 7 5 4 3 3 4 3 2 1 1 2 3 3 3 3 3 3 4 5 6
3 3 3 2 2 2 3 5 6 7 7 4 6 7 5 3 2 2 3 5 5 6 7 6 7 7 5 4 5 4 4 4 2 2 2 2 1 2 2 3 3 4 5 6
3 3 3 3 4 5 5 4 6 6 6 4 3 6 4 2 3 3 4 5 6 6 6 6 7 7 7 6 5 5 5 4 3 2 2 3 3 3 4 3 4 5 5 5
2 3 3 3 4 4 4 6 6 6 6 5 4 5 4 1 3 4 4 5 5 6 6 6 7 7 7 7 6 5 5 5 4 3 3 4 4 4 4 3 5 5 4 5
1 2 2 4 4 4 5 4 4 3 3 5 4 5 4 2 4 4 4 5 5 6 7 7 7 7 6 6 6 5 5 5 5 4 4 4 5 5 5 4 4 4 4 4
2 1 2 3 3 2 3 3 2 2 3 4 1 4 5 3 3 4 5 6 6 6 7 7 8 8 7 7 7 6 6 6 6 5 4 4 5 6 7 6 5 5 4 4
3 2 2 2 2 3 2 2 2 3 5 5 2 5 3 1 3 4 5 6 6 7 7 7 8 8 7 8 7 7 6 6 6 6 5 4 4 4 5 6 6 6 5 5
3 3 2 2 2 2 1 1 2 3 4 5 5 4 4 3 4 4 5 6 7 7 8 7 7 7 7 7 8 7 7 7 7 6 5 5 4 5 5 5 5 5 5 5
2 4 2 2 0 2 2 0 1 2 3 5 5 5 4 5 6 5 5 7 8 8 8 8 7 7 7 7 7 7 7 7 7 6 5 4 5 5 5 4 4 5 5 5
2 3 2 1 1 2 1 1 2 3 4 4 5 4 2 4 5 6 6 7 8 8 8 8 7 7 7 7 7 7 7 7 6 6 6 5 5 5 4 4 4 4 5 5
2 2 4 3 1 1 2 3 3 3 4 4 5 5 2 3 5 6 8 8 8 8 7 7 8 7 7 7 7 7 7 7 6 6 6 6 6 5 5 5 5 4 5 5
3 2 3 2 2 1 2 3 4 3 3 5 5 6 2 4 6 7 8 9 8 8 7 7 7 7 7 8 7 7 7 7 7 6 6 6 6 5 5 5 5 5 5 5
3 3 5 6 5 1 4 4 4 5 5 6 9 12 10 9 10 9 9 9 9 9 8 8 8 8 8 7 7 7 8 8 7 6 6 6 6 6 6 5 5 5 5 5
2 4 5 8 7 6 8 9 7 9 10 9 10 12 14 12 10 10 10 10 10 10 10 9 9 9 8 8 8 8 8 8 7 6 6 6 7 6 6 5 5 5 6 6
2 3 3 6 6 7 10 12 11 11 11 13 14 15 12 10 9 9 10 10 10 10 10 9 9 9 9 9 9 9 9 8 8 7 7 7 6 6 6 5 5 5 5 6
4 3 3 5 3 6 9 8 10 7 8 8 11 10 7 8 9 9 9 9 9 10 10 9 9 8 9 9 9 9 9 9 7 6 6 6 6 6 6 6 5 5 5 5
4 4 3 4 3 7 2 2 4 7 9 9 10 10 9 9 10 9 8 8 9 9 10 9 8 8 9 9 9 9 8 8 7 7 6 6 6 6 6 6 5 5 5 5
4 5 3 3 5 8 5 2 3 5 7 7 10 11 10 9 8 7 5 5 7 8 8 8 8 8 9 9 9 8 8 7 7 7 8 7 7 6 6 6 6 5 5 5
1 3 4 4 5 6 2 2 2 2 5 3 6 7 7 5 6 6 4 5 7 8 8 8 8 8 8 8 8 7 8 8 8 8 8 8 7 7 6 6 6 5 5 5
4 4 7 8 7 8 2 3 5 3 3 1 4 5 5 5 7 7 7 7 7 8 8 8 7 7 7 8 7 7 8 8 8 8 8 7 7 7 7 6 6 5 4 4
7 6 7 6 7 7 4 6 6 4 3 3 4 5 6 7 8 8 7 8 8 8 8 8 7 7 8 7 7 7 8 9 8 8 8 8 7 7 6 6 5 4 4 4
8 7 5 8 7 1 6 6 4 2 4 5 5 6 6 7 8 8 7 7 7 7 7 7 7 7 8 7 7 7 8 9 8 8 8 8 8 7 6 6 5 4 3 3
5 4 5 7 9 7 7 8 7 6 6 6 6 6 6 7 7 7 7 6 6 7 7 6 7 7 8 8 7 7 8 8 7 7 7 7 7 6 6 5 4 3 3 2
5 6 6 8 8 7 6 8 7 6 6 6 6 5 6 6 7 7 6 7 6 6 6 6 6 7 8 9 8 8 8 7 7 7 7 7 6 6 5 5 4 4 3 3
6 8 7 7 5 5 4 2 3 5 5 5 5 6 5 5 6 6 6 6 6 6 7 7 7 8 8 8 9 9 7 6 6 6 6 5 5 5 5 5 4 5 4 5
Wind_Direction
33 53 30 345 311 284 271 264 279 286 295 282 259 271 283 283 273 275 283 296 307 307 315 319 319 323 324 327 319 290 263 263 258 191 240 230 227 246 244 233 213 206 202 204
70 32 351 348 349 271 260 261 278 293 309 293 279 281 282 269 260 265 283 295 306 314 320 331 331 328 329 322 309 304 270 257 247 234 232 224 234 240 245 235 225 220 214 208
56 19 360 19 1 319 291 274 281 289 311 281 284 272 260 252 230 278 296 298 303 308 312 322 330 332 326 325 319 302 288 266 254 257 237 237 228 242 245 233 227 235 228 220
48 13 4 3 341 323 296 304 283 277 286 290 305 280 264 253 272 294 295 294 301 309 313 320 327 334 334 327 322 315 303 293 272 239 230 214 226 246 258 247 238 241 234 230
33 6 357 338 325 312 295 305 282 270 263 273 258 256 277 328 297 300 294 292 301 310 314 318 323 325 326 327 322 318 319 314 306 278 251 230 235 246 261 251 245 236 235 234
32 360 341 327 319 301 306 295 272 238 233 255 252 241 287 301 306 314 314 314 317 317 320 321 323 324 325 329 326 322 323 319 317 309 284 252 246 251 260 254 248 237 237 240
343 30 12 336 329 333 338 317 295 273 249 259 274 244 267 326 330 315 319 328 331 331 330 329 332 328 326 328 326 318 318 317 316 311 302 281 263 247 246 247 243 244 239 242
328 317 19 357 331 312 308 292 285 282 284 292 272 247 265 358 326 315 318 325 334 337 331 330 330 327 327 327 324 317 312 309 310 303 296 291 277 259 249 246 247 243 241 245
305 296 25 3 347 320 312 245 291 278 285 277 265 266 276 308 316 318 326 332 333 333 327 326 323 325 326 325 324 322 314 309 306 299 299 291 288 277 265 255 253 245 244 252
272 278 298 336 284 43 343 297 220 238 276 277 277 268 287 311 308 316 319 322 324 325 324 324 322 322 323 321 319 320 318 311 309 303 295 292 291 283 276 266 256 259 258 254
231 256 285 265 241 272 159 182 241 241 265 275 283 283 340 300 305 309 314 311 314 316 319 321 319 319 319 320 323 322 322 316 311 308 302 305 297 286 275 264 262 264 264 257
204 250 267 245 156 318 241 244 225 251 253 253 271 280 14 306 312 314 312 315 314 309 312 317 319 321 321 322 325 323 319 314 312 309 301 303 302 291 279 274 272 272 268 261
165 216 284 246 197 191 248 251 245 249 253 247 253 270 14 327 323 320 316 317 320 319 315 318 321 323 324 324 323 319 319 316 314 309 301 300 300 293 284 275 273 271 271 268
172 215 236 269 302 274 260 255 236 223 240 253 252 273 291 309 315 320 319 318 318 322 321 325 326 324 323 322 322 322 322 320 314 309 299 296 295 291 290 286 281 274 270 267
198 239 240 261 273 270 269 264 242 231 241 252 269 275 287 304 306 309 314 317 319 323 325 323 323 323 323 324 325 323 321 321 315 304 298 296 295 293 292 287 280 277 271 265
208 241 252 265 261 265 274 266 250 243 247 251 267 277 285 299 299 301 307 312 315 318 321 322 323 324 325 325 323 323 321 319 313 304 299 299 297 296 295 291 280 276 273 268
198 208 252 273 305 290 272 253 227 229 228 235 253 270 294 298 298 301 307 308 307 311 317 321 323 321 320 321 321 321 319 318 314 309 307 306 303 299 296 293 283 280 276 272
195 205 239 283 299 255 271 108 208 231 245 239 258 276 286 292 299 296 298 297 303 310 314 317 317 317 318 319 320 319 319 320 319 315 310 310 307 301 300 298 289 286 281 274
212 205 226 249 268 276 275 209 197 225 264 243 251 270 287 303 298 288 288 289 300 306 310 314 314 312 314 318 322 322 322 324 324 322 320 315 308 303 302 301 294 291 286 280
147 209 224 223 251 263 292 134 165 209 270 230 237 264 287 304 296 309 328 314 311 312 313 317 319 318 317 320 323 324 324 326 324 320 317 316 311 303 299 295 294 289 282 279
176 195 218 229 244 265 274 144 157 220 297 296 246 262 269 265 281 308 316 315 313 313 317 321 323 322 320 321 325 323 322 321 319 318 317 316 313 307 301 295 290 282 280 281
195 193 204 206 226 254 157 156 202 260 328 276 268 272 272 279 293 301 305 310 313 317 321 324 325 322 323 325 326 322 320 319 320 321 320 319 316 313 310 303 296 286 278 277
215 213 207 206 226 280 174 209 245 282 276 280 282 288 283 284 291 298 302 305 309 313 315 319 320 319 322 324 323 315 314 318 320 321 320 321 322 318 314 311 304 297 287 276
223 214 225 247 258 256 241 250 259 257 266 279 283 284 279 281 287 293 295 299 305 308 310 314 318 318 319 322 321 312 311 316 319 319 319 320 322 320 320 315 308 298 288 280
221 184 218 250 269 281 259 242 252 262 271 279 283 282 276 278 284 288 292 296 299 303 306 310 310 311 313 318 318 318 317 319 318 317 317 320 320 319 320 318 314 309 300 286
202 199 212 246 246 236 267 261 250 255 265 275 282 289 284 276 278 285 288 292 297 300 303 306 307 309 311 314 315 317 317 316 314 315 318 318 318 319 319 320 321 327 316 325
Height
1533 1532 1532 1534 1535 1533 1531 1530 1528 1528 1531 1529 1524 1522 1522 1522 1523 1522 1521 1520 1520 1519 1518 1517 1516 1515 1515 1515 1516 1516 1517 1517 1518 1518 1519 1520 1522 1523 1524 1526 1527 1529 1531 1532
1532 1535 1539 1539 1537 1535 1533 1530 1527 1527 1530 1529 1523 1520 1519 1520 1520 1521 1520 1519 1518 1517 1516 1515 1514 1513 1513 1513 1513 1513 1513 1514 1514 1515 1516 1518 1519 1520 1521 1522 1524 1525 1527 1529
1534 1541 1541 1539 1537 1534 1531 1530 1528 1528 1528 1527 1524 1514 1514 1516 1518 1519 1518 1518 1517 1516 1514 1513 1512 1511 1511 1510 1510 1511 1511 1512 1512 1513 1514 1515 1516 1517 1518 1519 1520 1522 1523 1525
1540 1543 1541 1539 1537 1536 1530 1532 1532 1530 1526 1521 1524 1510 1507 1513 1514 1515 1516 1516 1515 1514 1513 1512 1510 1509 1508 1508 1508 1508 1508 1509 1510 1510 1510 1511 1512 1513 1513 1515 1516 1518 1520 1521
1542 1544 1542 1540 1540 1539 1535 1535 1532 1529 1526 1524 1523 1520 1505 1512 1512 1513 1514 1514 1514 1513 1512 1511 1509 1508 1507 1506 1505 1505 1505 1506 1506 1506 1507 1508 1509 1510 1511 1512 1513 1514 1516 1517
1545 1547 1546 1544 1543 1541 1538 1534 1529 1527 1524 1521 1519 1517 1504 1511 1513 1512 1513 1513 1512 1512 1510 1508 1507 1506 1505 1504 1503 1503 1503 1502 1503 1504 1504 1505 1505 1506 1507 1508 1509 1510 1511 1513
1542 1545 1546 1546 1542 1539 1538 1532 1520 1515 1512 1508 1521 1519 1513 1514 1516 1516 1514 1513 1511 1510 1509 1507 1505 1504 1503 1501 1500 1500 1499 1499 1500 1500 1500 1501 1502 1503 1504 1504 1505 1506 1507 1508
1539 1537 1545 1546 1545 1542 1540 1537 1528 1519 1508 1505 1520 1515 1511 1517 1517 1516 1515 1513 1511 1509 1508 1506 1504 1502 1500 1499 1498 1497 1497 1497 1497 1498 1498 1498 1499 1500 1500 1501 1501 1501 1502 1504
1541 1539 1547 1548 1547 1545 1540 1538 1541 1536 1531 1523 1510 1511 1513 1515 1515 1514 1513 1512 1510 1509 1507 1504 1503 1500 1498 1497 1496 1495 1495 1494 1494 1495 1495 1495 1496 1496 1496 1497 1497 1498 1499 1500
1550 1547 1546 1548 1548 1548 1546 1544 1541 1535 1524 1511 1505 1508 1507 1513 1512 1513 1512 1511 1509 1508 1506 1503 1501 1499 1497 1496 1494 1493 1492 1492 1491 1491 1492 1492 1492 1492 1492 1492 1494 1494 1495 1496
1553 1550 1545 1546 1547 1544 1547 1547 1543 1537 1533 1519 1507 1505 1512 1513 1513 1513 1512 1511 1509 1507 1505 1502 1500 1497 1495 1494 1492 1490 1489 1489 1488 1488 1487 1488 1487 1488 1489 1489 1490 1491 1491 1492
1552 1549 1542 1543 1548 1549 1547 1545 1543 1535 1533 1532 1519 1513 1515 1516 1515 1514 1512 1510 1508 1506 1503 1501 1498 1495 1493 1491 1490 1488 1487 1486 1485 1484 1484 1484 1484 1484 1485 1485 1486 1487 1488 1489
1553 1551 1539 1532 1544 1550 1548 1547 1546 1544 1538 1531 1521 1514 1516 1516 1515 1513 1511 1508 1506 1503 1501 1499 1497 1494 1492 1489 1487 1486 1484 1483 1482 1482 1481 1481 1481 1481 1481 1481 1482 1483 1484 1484
1551 1550 1543 1533 1532 1541 1544 1545 1546 1543 1533 1527 1523 1513 1513 1514 1513 1512 1510 1507 1504 1502 1499 1497 1494 1492 1489 1487 1485 1483 1482 1481 1480 1479 1478 1478 1477 1478 1478 1478 1478 1478 1479 1480
1550 1547 1547 1544 1543 1544 1542 1540 1542 1541 1533 1528 1519 1518 1512 1513 1513 1511 1509 1506 1503 1500 1497 1494 1492 1489 1487 1484 1482 1480 1479 1477 1476 1475 1475 1474 1474 1474 1474 1473 1473 1474 1475 1475
1550 1547 1548 1543 1542 1542 1539 1534 1534 1535 1533 1528 1524 1518 1513 1513 1512 1509 1507 1504 1501 1498 1496 1493 1490 1487 1484 1482 1479 1477 1475 1474 1472 1471 1471 1470 1470 1469 1469 1469 1469 1470 1470 1471
1548 1548 1544 1534 1541 1539 1526 1523 1527 1527 1525 1524 1519 1513 1513 1512 1510 1508 1506 1503 1500 1497 1495 1491 1488 1486 1483 1480 1477 1475 1473 1471 1469 1468 1467 1466 1465 1465 1465 1465 1465 1465 1465 1466
1547 1546 1543 1537 1538 1529 1515 1523 1523 1523 1520 1520 1516 1513 1512 1510 1508 1506 1504 1501 1498 1495 1492 1490 1487 1484 1482 1479 1476 1473 1471 1468 1466 1465 1464 1463 1462 1461 1461 1460 1460 1460 1461 1461
1545 1544 1541 1538 1530 1518 1515 1520 1522 1521 1515 1514 1513 1511 1510 1508 1505 1502 1500 1498 1496 1493 1491 1488 1485 1482 1479 1476 1473 1471 1468 1466 1464 1462 1460 1459 1458 1457 1456 1456 1456 1456 1456 1456
1547 1545 1542 1539 1531 1518 1510 1519 1519 1521 1511 1509 1510 1509 1508 1507 1502 1499 1498 1496 1493 1491 1488 1485 1483 1480 1477 1474 1471 1468 1466 1463 1461 1459 1457 1456 1455 1454 1453 1452 1452 1452 1452 1452
1544 1544 1541 1535 1529 1514 1514 1518 1520 1516 1506 1508 1507 1507 1506 1504 1502 1499 1496 1493 1491 1488 1485 1482 1479 1477 1474 1472 1469 1466 1463 1461 1459 1457 1455 1453 1452 1451 1450 1449 1449 1448 1448 1448
1531 1532 1535 1532 1528 1515 1514 1516 1514 1508 1506 1505 1505 1504 1503 1501 1498 1496 1493 1490 1488 1485 1482 1479 1476 1473 1471 1469 1466 1463 1461 1459 1457 1455 1452 1451 1449 1447 1446 1445 1445 1444 1444 1444
1525 1522 1519 1520 1512 1509 1509 1508 1507 1506 1505 1503 1502 1501 1500 1497 1495 1493 1490 1488 1485 1482 1479 1477 1474 1471 1469 1467 1464 1461 1459 1457 1455 1452 1450 1448 1446 1444 1443 1442 1441 1440 1440 1440
1520 1521 1519 1516 1507 1506 1506 1505 1504 1503 1502 1501 1500 1498 1496 1494 1492 1490 1487 1485 1482 1480 1477 1474 1472 1469 1466 1464 1462 1459 1457 1455 1452 1450 1448 1445 1444 1442 1440 1439 1438 1437 1437 1437
1512 1516 1514 1510 1505 1503 1501 1500 1500 1499 1499 1497 1496 1494 1493 1491 1488 1486 1484 1482 1480 1477 1475 1472 1469 1466 1464 1462 1459 1457 1455 1453 1450 1448 1446 1443 1441 1439 1437 1436 1436 1435 1434 1434
1507 1507 1506 1500 1499 1499 1498 1497 1497 1496 1495 1493 1492 1490 1489 1488 1485 1483 1481 1479 1477 1474 1472 1469 1466 1464 1461 1459 1456 1454 1452 1450 1447 1445 1443 1441 1439 1437 1435 1434 1433 1432 1432 1431